Карточка аэропорта UWLW

Внимание!
Информация на этой странице в стадии наполнения.
Если вы не увидели какой-то информации, или заметили неточность - пожалуйста сообщите нам!
Спасибо!
Команда RU-STAFF
Название аэропортаВосточный
Название аэропорта (англ.)Vostochny
Превышение252 ft. (76.8 m.)
Координаты54°24', 48°48'
Высота перехода900m
Эшелон переходаQFE>=726mm:FL050; QFE<726:FL060
Коды ответчика6725-6727
Зона ОрВДСамара РПИ (UWWW)
Данные METARUWLW 070400Z 00000MPS 4900 -SN BR OVC019 M13/M14 Q1034 R20/490841 NOSIG RMK QFE770/1027
Проноз погоды (TAF)UWLW 070153Z 0703/0803 36003MPS 3100 -SN BR OVC010 TXM10/0712Z TNM14/0703Z TEMPO 0703/0707 0200 FZFG VV002 BECMG 0707/0709 6000 -SN BKN016
NOTAMshow/hide NOTAM
AWOS   TABLE

Информация о ВПП

ВПП Длина ВПП (м.) Покрытие Курс ВПП Частота ILS
025000Железобетон20110.1
205000Железобетон200110.1

Диспетчерские позиции


Сценарии



Спутниковое изображение